Location: Asheville, NC
(35.6000°N, 82.5500°W)
Time: 18:41:37
(UTC-04:00)

RS-15 - Pass Details

Date: 03 January 2018
Orbit: 1889 x 2156 km, 64.8° (Epoch: 23 April)

Event Time Altitude Azimuth Distance (km) Brightness Sun altitude
Rises 20:58:42 0° 329° (NNW) 5,563 10.7 -41.7°
Reaches altitude 10° 21:02:08 10° 330° (NNW) 4,526 10.2 -42.4°
Enters shadow 21:11:15 62° 332° (NNW) 2,199 8.1 -44.2°
